Flag for France Weather past 2 weeks in Orléans, France

Now
66 °F

Sunny.


Feels Like: 66 °F
Forecast: 53 / 79 °F
Wind: 7 mph from Northeast

Location: Orleans Airport

Current Time: Jul 31, 2015 at 10:29:59 PM

Latest Report: Jul 31, 2015 at 9:30 PM


Visibility: 10 mi

Pressure: 29.92 "Hg

Humidity: 46%

Dew point: 45 °F

Location of OrléansLocation

Historic Weather in Orléans — Graph

°F

Orléans temperature yesterday

Maximum temperature yesterday: 72 °F (at 4:30 PM)
Minimum temperature yesterday: 45 °F (at 6:30 AM)
Average temperature yesterday: 59 °F

Past Weeks' High & Low Weather Summary

 TemperatureHumidityPressure
High90 °F (Jul 16, 9:00 PM)100% (Jul 18, 7:00 AM)30.12 "Hg (Jul 18, 7:00 AM)
Low45 °F (Jul 30, 6:30 AM)25% (Jul 31, 3:30 PM)29.68 "Hg (Jul 24, 8:30 PM)
Average67 °F67%29.96 "Hg
* Reported Jul 16 9:00 PM — Jul 31 9:30 PM, Orléans, Weather by CustomWeather, © 2015

Note: Actual official high and low records may vary slightly from our data, if they occured in-between our weather recording intervals... More about our weather records

Advertising

Orléans weather history for previous 24 hours

 ConditionsComfort  
Time TempWeatherWind HumidityBarometerVisibility
9:30 PM
Fri, Jul 31
66 °FSunny.7 mph46%29.92 "Hg10 mi
9:00 PM68 °FSunny.8 mph40%29.92 "Hg10 mi
8:30 PM68 °FSunny.8 mph40%29.95 "Hg10 mi
8:00 PM70 °FSunny.6 mph33%29.95 "Hg10 mi
7:30 PM72 °FSunny.7 mph29%29.95 "Hg10 mi
7:00 PM72 °FPassing clouds.8 mph29%29.95 "HgN/A
6:30 PM72 °FSunny.9 mph27%29.95 "Hg10 mi
6:00 PM72 °FSunny.8 mph29%29.95 "Hg10 mi
5:30 PM73 °FSunny.12 mph25%29.95 "Hg10 mi
5:00 PM73 °FPassing clouds.12 mph27%29.95 "HgN/A
4:30 PM73 °FPassing clouds.13 mph25%29.95 "HgN/A
4:00 PM73 °FPassing clouds.14 mph27%29.95 "HgN/A
3:30 PM73 °FPassing clouds.12 mph25%29.98 "HgN/A
3:00 PM73 °FPassing clouds.12 mph29%29.98 "HgN/A
2:30 PM72 °FPassing clouds.13 mph29%29.98 "HgN/A
2:00 PM72 °FPassing clouds.13 mph31%30.01 "HgN/A
1:30 PM70 °FPassing clouds.13 mph33%30.01 "HgN/A
1:00 PM70 °FPassing clouds.13 mph35%30.01 "HgN/A
12:30 PM68 °FPassing clouds.13 mph38%30.04 "HgN/A
12:00 PM68 °FPassing clouds.12 mph43%30.04 "HgN/A
11:30 AM66 °FPassing clouds.10 mph46%30.04 "HgN/A
11:00 AM64 °FPassing clouds.9 mph52%30.07 "HgN/A
10:30 AM63 °FPassing clouds.10 mph56%30.07 "HgN/A
10:00 AM61 °FPassing clouds.6 mph63%30.07 "HgN/A
9:30 AM57 °FSunny.5 mph72%30.09 "Hg10 mi
9:00 AM55 °FSunny.8 mph77%30.07 "Hg10 mi
8:30 AM54 °FSunny.10 mph77%30.07 "Hg10 mi
8:00 AM50 °FSunny.7 mph88%30.07 "Hg10 mi
7:30 AM48 °FSunny.7 mph87%30.07 "Hg10 mi
7:00 AM46 °FClear.7 mph87%30.07 "Hg10 mi
6:30 AM45 °FClear.5 mph87%30.07 "Hg10 mi
6:00 AM46 °FClear.3 mph82%30.07 "Hg10 mi
5:30 AM46 °FClear.3 mph82%30.07 "Hg10 mi
5:00 AM46 °FClear.3 mph82%30.09 "Hg10 mi
4:30 AM46 °FClear.3 mph82%30.09 "Hg10 mi
4:00 AM48 °FClear.7 mph82%30.09 "Hg10 mi
3:30 AM48 °FClear.5 mph82%30.09 "Hg10 mi
3:00 AM50 °FClear.3 mph76%30.09 "Hg10 mi
2:30 AM50 °FClear.6 mph76%30.09 "Hg10 mi
2:00 AM50 °FClear.7 mph76%30.09 "Hg10 mi
1:30 AM52 °FPassing clouds.7 mph72%30.09 "HgN/A
1:00 AM52 °FClear.8 mph72%30.12 "Hg10 mi
12:30 AM54 °FPassing clouds.9 mph67%30.09 "HgN/A
12:00 AM55 °FClear.8 mph63%30.09 "Hg10 mi
11:30 PM
Thu, Jul 30
55 °FClear.8 mph63%30.09 "Hg10 mi
11:00 PM57 °FClear.8 mph59%30.09 "Hg10 mi
10:30 PM57 °FSunny.9 mph59%30.09 "Hg10 mi
10:00 PM61 °FSunny.8 mph52%30.09 "Hg10 mi
Weather by CustomWeather, © 2015

See weather overviewHow to use our weather pages